This is the latest recevied weather packets stored in our database for station/object N0ZRD-10. If no packets are shown the sender has not sent any weather packets the latest 10 day(s).
| Time | Temp. | Humidity | Pressure | Rain* | Wind** | Luminosity | Snow |
|---|---|---|---|---|---|---|---|
| 1777851808 | 18.33° C | 18% | - | 0 mm | - | - | - |
| 1777851207 | 17.22° C | 18% | - | 0 mm | - | - | - |
| 1777850606 | 17.78° C | 17% | - | 0 mm | - | - | - |
| 1777850005 | 17.78° C | 18% | - | 0 mm | - | - | - |
| 1777849404 | 17.78° C | 20% | - | 0 mm | - | - | - |
| 1777848803 | 17.78° C | 17% | - | 0 mm | - | - | - |
| 1777848202 | 17.22° C | 16% | - | 0 mm | - | - | - |
| 1777847600 | 17.22° C | 17% | - | 0 mm | - | - | - |
| 1777845797 | 17.22° C | 21% | - | 0 mm | - | - | - |
| 1777845196 | 17.22° C | 20% | - | 0 mm | - | - | - |
| 1777844595 | 16.67° C | 16% | - | 0 mm | - | - | - |
| 1777843994 | 17.22° C | 17% | - | 0 mm | - | - | - |
| 1777843393 | 17.22° C | 21% | - | 0 mm | - | - | - |
| 1777842792 | 16.67° C | 18% | - | 0 mm | - | - | - |
| 1777840388 | 16.67° C | 19% | - | 0 mm | - | - | - |
| 1777839185 | 16.11° C | 18% | - | 0 mm | - | - | - |
| 1777838585 | 16.11° C | 18% | - | 0 mm | - | - | - |
| 1777837984 | 15.56° C | 18% | - | 0 mm | - | - | - |
| 1777836782 | 15.56° C | 20% | - | 0 mm | - | - | - |
| 1777836181 | 15.56° C | 18% | - | 0 mm | - | - | - |
| 1777834979 | 15.56° C | 21% | - | 0 mm | - | - | - |
| 1777834378 | 15.56° C | 20% | - | 0 mm | - | - | - |
| 1777833176 | 15.56° C | 17% | - | 0 mm | - | - | - |
| 1777832575 | 15° C | 16% | - | 0 mm | - | - | - |
| 1777831974 | 15° C | 15% | - | 0 mm | - | - | - |
* Rain latest hour (hover to see other rain measurements)
** Current wind speed in m/s (hover to see current wind gust speed)